2024-247L (62387 NORAD) Tracking and Keplerian Element Data

This shows tracking and keplerian element data for the satellite.

Feedback or suggestion? Click here.




ElementValue
Catalog62387
Name2024-247L
Epoch Orbit681
Epoch Day34.29057632
Epoch Year2025
RAAN124.3985
Inclination44.9948
Eccentricity0.0003469
Argument of Perigee254.7556
Mean Anonmoly105.2941
Mean Motion15.21392515
Decay Rate0.00026812
L11 62387U 24247L 25034.29057632 .00026812 00000+0 11819-2 0 9993
L22 62387 44.9948 124.3985 0003469 254.7556 105.2941 15.21392515 6815



Live tracking and technical data element details for 2024-247L (NORAD 62387). 2024-247L can be tracked NOW for your location showing map with azimuth and elevation plus other details from your city location.







IsCatalogInMostPopularTable: catalog: 62387, numindb: 24
Update: records affected: 1



GetName: 62387 2024-247L

Hit Count: updated at: Sun, 18 May 2025 23:06:54 GMT